Location: Newark
(34.1333°N, 7.9667°W)
Time: 03:54:06
(UTC+00:00)

ITAMSAT 1 - Pass Details

Date: 25 April 2024
Orbit: 781 x 796 km, 98.8° (Epoch: 27 May)

Event Time Altitude Azimuth Distance (km) Brightness Sun altitude
Exits shadow 22:28:15 12° 252° (WSW) 2,236 10.1 -34.2°
Maximum altitude 22:29:33 13° 268° (W) 2,172 10.2 -34.4°
Drops below altitude 10° 22:31:49 10° 294° (WNW) 2,367 10.7 -34.7°
Sets 22:35:37 0° 322° (NW) 3,301 11.9 -35.1°
